South Arkansas Regional At Goodwin Field El Dorado US
ICAO: KELD
IATA: ELD
Category: Medium
Scheduled Services: Yes

Elevation: 277 ft
TransAlt. 18000 ft.

Airport Communications:
FORT WORTH CNTR:126.32
ASOS:118.325
JONESBORO RDO:122.65
CTAF/UNICOM:123

KELD Zoom In..

If you have problems with the map follow the link
https://www.worldairports.se/pages/airport.php?
ICAO=KELD

Runways:

(A) RW 04 length 6601 ft width 150 ft
---- / hdg 43

(B) RW 13 length 5100 ft width 100 ft
---- / hdg 133

(C) RW 17 length 3733 ft width 75 ft
---- / hdg 178

(D) RW 22 length 6601 ft width 150 ft
ILS 111.10 / hdg 223

(E) RW 31 length 5100 ft width 100 ft
---- / hdg 313

(F) RW 35 length 3733 ft width 75 ft
---- / hdg 358

Location; KELD
Day. 05 / Time. 20.53 Zulu
* Altimeter: 29.99
* Temperature: 20° c. 68°f.
* Wind from: 140° Speed 09 kn.
Dewpoint: 04° c.
Visibility: 10 Statute Miles.
Clouds: Clear (automated report).

KELD 052053Z AUTO 14009KT 10SM CLR 20/04 A2999 RMK AO2 SLP154 T02000044 56027


Wind From 140°
Speed 09 kn.

 
 
jpsmedia worldairports.se 2019   terms of use